SCP
-0 -0 -0 -0 -0 -0 -0 -0 -0 -0 -0 -0 -0 0 0 0 0 0 0 0 0 -0 -0 0 0 0 0 0 0 0 0 0 0 0 0 0 0 0 -0 0 0 0 0 0 -0 -0 0
0 -0 -0 -0 -0 -0 -0 -0 -0 -0 -0 -0 0 -0 -0 0 0 0 0 0 -0 -0 -0 -0 0 0 0 0 0 0 0 0 0 0 0 0 0 0 0 0 -0 -0 -0 0 0 0 -0
0 0 0 -0 -0 -0 -0 -0 -0 -0 -0 -0 -0 0 -0 -0 -0 0 0 -0 -0 0 -0 0 0 0 0 -0 0 -0 -0 0 0 0 0 -0 0 0 0 0 -0 0 -0 -0 -0 0 -0
0 0 -0 -0 -0 -0 -0 -0 -0 -0 -0 -0 -0 -0 -0 -0 -0 -0 -0 -0 0 0 0 0 0 0 0 -0 0 0 0 0 0 0 0 0 0 0 -0 0 0 0 0 0 0 0 0
0 0 -0 -0 -0 -0 -0 -0 -0 -0 -0 -0 -0 0 0 -0 -0 0 0 -0 -0 0 0 0 0 0 0 0 0 0 0 0 0 0 0 0 0 0 0 0 0 0 0 0 -0 -0 -0
0 0 0 0 -0 -0 -0 -0 -0 -0 -0 -0 -0 -0 0 0 -0 0 0 0 0 0 0 0 0 0 0 0 0 0 0 0 0 0 0 0 0 0 0 0 0 0 0 0 0 0 0
0 0 0 0 0 -0 -0 -0 -0 -0 -0 -0 -0 -0 0 0 0 -0 0 0 0 0 0 0 0 0 0 0 0 0 0 0 0 0 0 0 0 0 0 0 0 0 0 0 0 0 -0
0 0 0 0 0 0 0 -0 -0 -0 0 0 -0 0 0 0 0 0 0 0 0 0 0 0 0 0 0 0 0 0 0 0 0 0 0 0 0 0 0 0 0 0 0 0 0 0 0
0 0 0 0 0 0 0 0 0 0 -0 0 0 0 -0 0 0 0 0 0 0 0 0 0 0 0 0 0 0 0 0 0 0 0 0 0 0 0 0 0 0 0 0 0 0 0 0
0 0 0 0 0 0 0 0 0 0 0 0 0 0 0 -0 0 0 0 0 0 0 0 0 0 0 0 0 0 0 0 0 0 0 0 0 0 0 0 0 0 0 0 0 0 0 0
0 0 0 0 0 0 0 0 0 0 0 0 0 0 0 0 0 0 0 0 0 0 0 0 0 0 0 0 0 0 0 0 0 0 0 0 0 0 0 0 0 0 0 0 0 0 0
0 0 0 0 0 0 0 0 0 0 0 0 0 0 0 0 0 0 0 0 0 0 0 0 0 0 0 0 0 0 0 0 0 0 0 0 0 0 0 0 0 0 0 0 0 0 0
0 0 0 0 0 0 0 0 0 0 0 0 0 0 0 0 0 0 0 0 0 0 0 0 0 0 0 0 0 0 0 0 0 0 0 0 0 0 0 0 0 0 0 0 0 0 0
0 0 0 0 0 0 0 0 0 0 0 0 0 0 0 0 0 0 0 0 0 0 0 0 0 0 0 0 0 0 0 0 0 0 0 0 0 0 0 0 0 0 0 0 0 0 0
0 0 0 0 0 0 0 0 0 0 0 0 0 0 0 0 0 0 0 0 0 0 0 0 0 0 0 0 0 0 0 0 0 0 0 0 0 0 0 0 0 0 0 0 0 0 0
0 0 0 0 0 0 0 0 0 0 0 0 0 0 0 0 0 0 0 0 0 0 0 0 0 0 0 0 0 0 0 0 0 0 0 0 0 0 0 0 0 0 0 0 0 0 0
0 0 0 0 0 0 0 0 0 0 0 0 0 0 0 0 0 0 0 0 0 0 0 0 0 0 0 0 0 0 0 0 0 0 0 0 0 0 0 0 0 0 0 0 0 0 0
0 0 0 0 0 0 0 0 0 0 0 0 0 0 0 0 0 0 0 0 0 0 0 0 0 0 0 0 0 0 0 0 0 0 0 0 0 0 0 0 0 0 0 0 0 0 0
0 0 0 0 0 0 0 0 0 0 0 0 0 0 0 0 0 0 0 0 0 0 0 0 0 0 0 0 0 0 0 0 0 0 0 0 0 0 0 0 0 0 0 0 0 0 0
0 0 0 0 0 0 0 0 0 0 0 0 0 0 0 0 0 0 0 0 0 0 0 0 0 0 0 0 0 0 0 0 0 0 0 0 0 0 0 0 0 0 0 0 0 0 0
0 0 0 0 0 0 0 0 0 0 0 0 0 0 0 0 0 0 0 0 0 0 0 0 0 0 0 0 0 0 0 0 0 0 0 0 0 0 0 0 0 0 0 0 0 0 0
0 0 0 0 0 0 0 0 0 0 0 0 0 0 0 0 0 0 0 0 0 0 0 0 0 0 0 0 0 0 0 0 0 0 0 0 0 0 0 0 0 0 0 0 0 0 0
0 0 0 0 0 0 -0 -0 0 -0 0 0 0 0 0 0 0 0 0 0 0 0 0 0 0 0 0 0 0 0 0 0 0 0 0 0 0 0 0 0 0 0 0 0 0 0 0
0 0 0 0 0 0 0 0 0 0 -0 0 0 0 0 0 0 0 0 0 0 0 0 0 0 0 0 0 0 0 0 0 0 0 0 0 0 0 0 0 0 0 0 0 0 0 0
0 0 0 0 0 0 0 0 0 0 0 0 0 0 0 0 0 0 0 0 0 0 0 0 0 0 0 0 0 0 0 0 0 0 0 0 0 0 0 0 0 0 0 0 0 0 0
0 0 0 0 0 0 0 0 0 0 0 0 0 0 0 0 0 0 0 0 0 0 0 0 0 0 0 0 0 0 0 0 0 0 0 0 0 0 0 0 0 0 0 0 0 0 0
0 0 0 0 0 0 0 0 0 0 0 0 0 0 0 0 0 0 0 0 0 0 0 0 0 0 0 0 0 0 0 0 0 0 0 0 0 0 0 0 0 0 0 0 0 0 0
0 0 0 0 0 0 0 0 0 0 0 0 0 0 0 0 0 0 0 0 0 0 0 0 0 0 0 0 0 0 0 0 0 0 0 0 0 0 0 0 0 0 0 0 0 0 0
0 0 0 0 0 0 0 0 0 0 0 0 0 0 0 0 0 0 0 0 0 0 0 0 0 0 0 0 0 0 0 0 0 0 0 0 0 0 0 0 0 0 0 0 0 0 0
Wind_Speed_500mb
18 20 20 20 18 17 15 14 13 13 12 11 11 14 15 13 13 16 20 24 21 28 37 32 24 23 45 66 38 44 58 59 62 52 71 85 91 46 19 21 45 26 25 41 47 51 45
14 16 17 16 14 14 12 12 12 11 9 10 8 9 11 10 9 13 16 22 20 16 21 39 32 24 48 63 36 33 43 49 53 68 81 88 78 72 48 29 27 33 40 23 23 27 24
13 12 11 11 11 11 10 8 9 9 6 6 7 6 7 11 11 14 16 17 10 13 10 19 17 33 64 34 25 25 34 47 52 51 56 39 28 23 34 31 27 33 16 15 6 4 7
10 9 9 8 7 7 7 6 6 6 4 3 5 4 5 4 3 10 13 19 17 3 13 10 4 19 25 23 21 10 16 24 33 41 55 59 61 71 25 47 13 1 1 6 8 1 5
7 7 6 5 5 6 7 6 8 7 5 6 7 2 4 5 5 9 19 16 24 5 7 10 13 8 12 12 12 16 13 21 27 39 34 20 34 27 14 8 9 15 6 10 5 14 2
0 3 3 1 1 3 5 6 6 6 5 5 6 2 5 12 5 14 20 3 21 11 2 3 7 10 10 8 11 15 13 5 4 5 12 18 20 10 10 7 4 6 9 7 8 13 15
9 5 2 1 4 4 6 6 6 10 10 10 7 2 7 7 7 16 17 2 6 4 28 23 15 17 11 14 17 9 11 13 11 15 12 24 20 12 15 11 9 16 12 10 4 6 7
15 12 9 6 6 7 6 6 7 7 8 10 10 8 8 13 17 17 6 5 10 7 17 16 15 16 14 7 5 15 7 5 12 7 8 13 13 9 5 13 18 15 14 6 2 5 6
17 16 15 13 11 9 9 9 10 10 9 8 8 8 9 12 13 7 6 10 9 4 6 5 9 6 6 10 10 15 7 15 17 13 13 13 0 5 7 12 11 10 9 3 5 5 7
10 14 18 17 16 15 14 13 12 14 13 13 11 11 9 7 7 6 6 5 6 3 9 3 1 3 6 3 8 14 10 5 9 9 8 11 8 5 7 8 4 7 5 6 8 6 1
8 10 11 17 20 20 19 17 15 14 16 16 14 14 11 5 4 6 5 1 5 6 8 3 1 1 7 5 4 9 12 9 9 7 4 0 5 8 8 2 2 6 4 6 4 6 7
15 13 12 13 15 20 21 21 20 18 16 15 16 16 12 9 9 7 6 2 3 13 12 1 1 1 3 6 5 3 4 10 13 10 15 6 3 4 2 2 2 4 5 9 7 5 6
25 22 19 17 16 15 17 22 23 23 21 19 16 15 13 11 8 11 10 5 11 9 7 7 6 2 3 3 3 5 5 2 5 8 4 2 0 0 3 6 4 6 7 6 10 8 9
39 35 30 26 23 21 20 18 20 25 25 24 20 17 15 14 11 12 18 10 8 7 13 4 4 4 6 7 1 3 3 5 6 7 6 10 10 10 5 5 8 4 8 8 10 4 8
48 45 41 38 32 29 27 24 22 20 24 27 25 22 20 17 16 18 16 6 18 16 13 20 6 5 6 3 7 4 12 10 14 19 14 9 4 2 2 2 4 7 5 6 14 2 6
59 54 47 46 44 36 35 31 30 25 21 25 26 23 30 23 22 25 7 15 11 9 18 8 20 15 15 11 9 11 11 9 8 13 2 10 5 1 1 1 3 3 10 7 6 1 9
70 65 61 57 54 53 48 41 37 37 33 25 24 11 21 27 31 22 8 16 14 21 24 16 20 12 13 16 17 13 10 4 12 11 7 8 7 2 3 15 16 5 5 5 6 8 10
58 60 65 66 68 68 60 55 48 45 44 36 17 6 20 34 16 5 10 16 14 16 35 16 5 11 21 20 18 13 22 16 33 42 19 14 10 9 13 1 3 4 11 12 9 12 7
21 22 31 38 31 51 68 62 54 51 47 41 13 16 26 46 8 7 8 9 13 12 14 15 15 16 7 17 2 18 13 4 39 29 20 18 5 3 13 2 5 11 12 8 7 6 15
21 21 21 23 13 15 11 26 37 45 41 44 13 3 15 44 15 11 9 11 10 24 10 16 8 11 7 10 5 10 11 6 29 26 13 28 7 16 24 17 11 13 15 26 14 8 9
30 32 29 28 24 25 18 21 9 17 63 51 25 16 15 8 16 22 15 11 10 10 21 23 7 14 19 12 4 11 6 6 7 18 15 12 17 13 11 6 9 11 14 34 37 46 26
37 38 39 40 39 38 34 32 17 26 16 66 22 10 15 5 7 24 23 14 23 7 18 11 14 24 27 29 29 26 16 11 15 9 14 8 8 6 10 2 10 19 27 28 50 30 45
35 39 42 43 42 42 40 40 35 31 18 36 33 20 10 11 10 6 12 15 16 14 21 44 31 18 14 32 23 21 24 14 24 28 26 18 13 8 29 4 11 27 44 50 40 28 42
24 23 25 28 27 24 26 20 27 35 31 42 45 30 10 6 10 10 9 33 27 32 42 10 15 9 14 20 20 11 5 7 20 7 24 16 13 6 7 5 17 20 19 32 58 59 51
43 34 28 24 22 27 27 33 38 30 45 34 47 53 22 8 22 26 27 26 35 44 43 50 57 46 36 12 5 9 6 11 6 5 6 3 10 7 17 14 28 47 14 19 19 47 55
40 38 37 44 43 35 26 28 35 36 32 50 56 41 43 26 33 47 25 33 20 18 11 26 42 36 27 16 7 19 17 7 11 9 5 3 6 13 7 14 44 81 20 45 19 43 45
48 46 46 45 43 43 47 42 36 37 38 37 47 53 52 25 54 61 35 28 35 22 6 7 17 22 44 9 14 16 19 10 17 17 11 6 3 32 37 17 32 13 26 50 17 18 40
51 48 44 43 43 42 42 43 47 55 46 44 62 59 60 41 56 53 58 69 51 49 25 19 10 6 5 13 13 12 12 17 25 34 17 25 20 13 8 18 55 26 24 44 42 66 25
61 57 52 49 50 50 53 59 56 57 57 54 68 65 66 74 66 46 53 86 92 83 60 41 51 29 37 12 10 6 11 9 26 26 19 39 35 30 28 19 15 27 55 64 72 72 45
Wind_Direction_500mb
101 109 108 105 103 98 93 90 81 73 67 67 71 76 78 85 72 45 28 30 46 47 51 54 56 84 81 76 56 40 36 46 58 66 83 90 82 76 83 88 64 61 76 76 90 83 78
80 93 101 106 103 94 88 92 96 90 81 68 58 80 67 76 72 48 39 35 51 60 51 57 64 81 81 74 58 47 43 53 56 72 79 86 90 91 73 54 54 113 100 98 82 85 92
79 79 90 93 95 95 97 96 85 88 80 73 60 115 91 84 80 49 38 28 23 58 47 73 67 56 71 83 66 47 43 51 58 62 75 77 94 103 98 96 101 119 96 112 71 97 156
74 80 88 79 69 63 66 65 63 61 55 48 47 135 161 135 78 34 37 10 332 211 34 42 7 50 76 80 74 71 47 60 54 67 77 83 86 86 91 118 122 61 218 51 6 266 67
61 81 73 53 49 41 34 36 29 29 20 9 4 340 204 192 125 41 0 3 24 168 46 42 40 85 76 83 66 54 94 82 61 81 69 54 46 76 94 113 80 28 51 19 338 17 3
125 54 62 39 76 36 20 12 8 8 6 357 9 349 164 150 117 0 355 348 40 41 249 355 37 86 71 60 60 70 92 125 126 138 353 45 55 60 22 54 109 122 96 37 21 343 30
206 230 268 267 299 327 338 350 5 349 350 349 348 324 189 217 311 341 345 324 321 7 66 74 62 86 101 81 64 69 109 83 86 50 39 30 62 32 331 1 93 109 96 103 319 309 44
231 236 238 259 285 293 296 310 324 328 330 340 342 325 278 277 305 322 350 71 60 119 76 66 68 73 66 74 82 59 80 86 55 50 1 41 51 319 26 46 68 76 99 65 48 28 65
247 247 256 261 267 280 287 291 295 304 310 313 325 321 306 296 305 320 117 88 88 102 83 55 48 36 58 58 52 17 63 90 86 52 29 99 167 24 81 41 59 31 95 149 135 47 80
267 254 251 259 267 276 286 295 294 299 303 310 306 315 312 299 285 202 137 69 30 355 71 277 9 19 353 84 52 42 66 91 54 140 91 78 355 76 70 73 1 66 10 74 104 54 193
272 281 270 258 257 262 270 281 292 294 298 304 305 302 312 296 282 205 189 346 16 9 12 277 338 246 54 86 119 29 38 65 99 97 122 19 28 29 48 19 340 140 85 52 73 87 67
251 261 273 282 273 263 262 265 274 279 281 285 292 297 296 293 253 252 203 213 9 43 262 286 246 175 84 46 54 62 51 72 116 86 45 103 69 79 71 3 353 135 87 55 54 63 21
257 257 259 267 278 285 277 268 264 271 275 275 274 277 278 282 259 232 205 165 35 133 336 266 239 156 92 109 47 40 40 71 170 94 202 340 255 125 145 103 12 65 56 350 356 7 222
262 257 256 257 264 269 277 280 274 264 267 274 273 271 263 257 250 216 180 54 125 231 215 97 79 63 200 146 208 76 62 274 226 94 98 157 302 175 166 159 179 157 145 157 216 235 266
253 257 259 267 264 265 270 277 282 286 265 264 273 270 265 251 231 202 178 83 204 198 155 150 99 169 265 193 137 135 202 221 210 180 162 131 253 3 31 106 135 196 183 138 100 71 36
246 248 250 256 261 267 262 265 269 275 284 272 264 268 259 238 222 196 104 229 229 195 133 154 182 155 197 197 161 182 189 198 190 188 106 193 76 264 150 61 23 186 152 74 1 266 287
244 242 242 244 248 251 257 255 254 257 262 266 258 241 236 212 199 180 177 224 241 215 181 164 203 156 199 181 186 202 214 235 166 142 124 137 104 278 42 203 180 153 207 67 127 149 193
231 235 239 243 246 248 245 246 245 247 249 244 220 238 215 189 172 193 172 194 213 199 208 236 207 192 184 173 185 219 213 221 176 153 166 188 143 174 199 99 54 244 218 166 140 230 228
208 199 208 220 228 238 242 243 242 244 246 241 216 222 200 187 182 241 269 249 224 160 195 189 224 209 176 173 208 202 202 205 179 166 165 181 233 23 332 12 6 217 199 170 94 63 200
286 292 259 233 244 248 224 225 239 254 252 243 202 234 192 199 229 186 172 232 228 211 221 190 197 135 117 196 240 236 226 183 194 196 174 159 160 181 231 216 133 183 198 189 154 145 198
296 294 294 299 288 269 286 292 242 229 244 252 217 230 195 197 237 211 187 163 165 209 222 198 229 209 177 193 196 227 221 162 198 208 183 166 209 189 241 207 194 212 193 185 205 219 202
277 283 287 288 290 292 294 295 285 227 305 233 237 214 194 269 233 198 209 208 216 233 158 237 228 208 212 219 206 231 162 184 195 154 162 213 235 125 272 268 247 250 226 198 221 230 247
261 260 261 262 266 273 284 287 281 284 289 226 240 239 229 211 177 155 210 208 226 189 254 245 224 231 213 235 261 280 232 228 203 162 187 161 148 123 260 55 327 279 212 212 220 207 217
246 261 266 265 262 247 227 230 261 250 252 258 272 268 223 262 217 218 222 218 227 218 239 258 259 205 243 253 221 245 230 50 169 153 163 157 154 167 252 56 251 253 176 200 219 227 215
239 239 246 246 261 278 280 259 254 245 209 235 251 258 250 251 239 251 241 243 252 250 250 247 248 254 264 213 37 303 315 341 285 197 197 223 150 201 222 199 285 273 176 168 180 253 219
241 247 251 251 249 249 255 257 273 280 253 242 243 259 231 240 249 256 253 233 240 240 223 236 240 239 201 193 151 230 225 185 235 308 11 69 46 206 118 196 241 254 177 191 103 269 183
240 239 240 244 247 249 253 260 266 251 255 262 253 251 251 252 253 233 233 244 234 219 224 160 188 187 202 192 223 227 239 172 227 201 165 162 254 220 227 239 265 143 140 140 169 263 183
247 247 251 255 258 259 258 254 258 256 260 256 254 252 256 261 264 246 247 236 243 228 229 177 128 138 153 208 206 202 226 213 230 239 190 182 175 206 204 220 249 144 164 205 236 274 237
244 245 252 257 261 264 267 268 265 261 259 261 269 264 258 249 254 260 261 256 245 239 251 230 230 187 194 203 205 213 216 202 213 235 221 232 217 229 207 230 254 222 237 240 242 258 254
Wind_Speed_850mb
18 20 20 20 18 17 15 14 13 13 12 11 11 14 15 13 13 16 20 24 21 28 37 32 24 23 45 66 38 44 58 59 62 52 71 85 91 46 19 21 45 26 25 41 47 51 45
14 16 17 16 14 14 12 12 12 11 9 10 8 9 11 10 9 13 16 22 20 16 21 39 32 24 48 63 36 33 43 49 53 68 81 88 78 72 48 29 27 33 40 23 23 27 24
13 12 11 11 11 11 10 8 9 9 6 6 7 6 7 11 11 14 16 17 10 13 10 19 17 33 64 34 25 25 34 47 52 51 56 39 28 23 34 31 27 33 16 15 6 4 7
10 9 9 8 7 7 7 6 6 6 4 3 5 4 5 4 3 10 13 19 17 3 13 10 4 19 25 23 21 10 16 24 33 41 55 59 61 71 25 47 13 1 1 6 8 1 5
7 7 6 5 5 6 7 6 8 7 5 6 7 2 4 5 5 9 19 16 24 5 7 10 13 8 12 12 12 16 13 21 27 39 34 20 34 27 14 8 9 15 6 10 5 14 2
0 3 3 1 1 3 5 6 6 6 5 5 6 2 5 12 5 14 20 3 21 11 2 3 7 10 10 8 11 15 13 5 4 5 12 18 20 10 10 7 4 6 9 7 8 13 15
9 5 2 1 4 4 6 6 6 10 10 10 7 2 7 7 7 16 17 2 6 4 28 23 15 17 11 14 17 9 11 13 11 15 12 24 20 12 15 11 9 16 12 10 4 6 7
15 12 9 6 6 7 6 6 7 7 8 10 10 8 8 13 17 17 6 5 10 7 17 16 15 16 14 7 5 15 7 5 12 7 8 13 13 9 5 13 18 15 14 6 2 5 6
17 16 15 13 11 9 9 9 10 10 9 8 8 8 9 12 13 7 6 10 9 4 6 5 9 6 6 10 10 15 7 15 17 13 13 13 0 5 7 12 11 10 9 3 5 5 7
10 14 18 17 16 15 14 13 12 14 13 13 11 11 9 7 7 6 6 5 6 3 9 3 1 3 6 3 8 14 10 5 9 9 8 11 8 5 7 8 4 7 5 6 8 6 1
8 10 11 17 20 20 19 17 15 14 16 16 14 14 11 5 4 6 5 1 5 6 8 3 1 1 7 5 4 9 12 9 9 7 4 0 5 8 8 2 2 6 4 6 4 6 7
15 13 12 13 15 20 21 21 20 18 16 15 16 16 12 9 9 7 6 2 3 13 12 1 1 1 3 6 5 3 4 10 13 10 15 6 3 4 2 2 2 4 5 9 7 5 6
25 22 19 17 16 15 17 22 23 23 21 19 16 15 13 11 8 11 10 5 11 9 7 7 6 2 3 3 3 5 5 2 5 8 4 2 0 0 3 6 4 6 7 6 10 8 9
39 35 30 26 23 21 20 18 20 25 25 24 20 17 15 14 11 12 18 10 8 7 13 4 4 4 6 7 1 3 3 5 6 7 6 10 10 10 5 5 8 4 8 8 10 4 8
48 45 41 38 32 29 27 24 22 20 24 27 25 22 20 17 16 18 16 6 18 16 13 20 6 5 6 3 7 4 12 10 14 19 14 9 4 2 2 2 4 7 5 6 14 2 6
59 54 47 46 44 36 35 31 30 25 21 25 26 23 30 23 22 25 7 15 11 9 18 8 20 15 15 11 9 11 11 9 8 13 2 10 5 1 1 1 3 3 10 7 6 1 9
70 65 61 57 54 53 48 41 37 37 33 25 24 11 21 27 31 22 8 16 14 21 24 16 20 12 13 16 17 13 10 4 12 11 7 8 7 2 3 15 16 5 5 5 6 8 10
58 60 65 66 68 68 60 55 48 45 44 36 17 6 20 34 16 5 10 16 14 16 35 16 5 11 21 20 18 13 22 16 33 42 19 14 10 9 13 1 3 4 11 12 9 12 7
21 22 31 38 31 51 68 62 54 51 47 41 13 16 26 46 8 7 8 9 13 12 14 15 15 16 7 17 2 18 13 4 39 29 20 18 5 3 13 2 5 11 12 8 7 6 15
21 21 21 23 13 15 11 26 37 45 41 44 13 3 15 44 15 11 9 11 10 24 10 16 8 11 7 10 5 10 11 6 29 26 13 28 7 16 24 17 11 13 15 26 14 8 9
30 32 29 28 24 25 18 21 9 17 63 51 25 16 15 8 16 22 15 11 10 10 21 23 7 14 19 12 4 11 6 6 7 18 15 12 17 13 11 6 9 11 14 34 37 46 26
37 38 39 40 39 38 34 32 17 26 16 66 22 10 15 5 7 24 23 14 23 7 18 11 14 24 27 29 29 26 16 11 15 9 14 8 8 6 10 2 10 19 27 28 50 30 45
35 39 42 43 42 42 40 40 35 31 18 36 33 20 10 11 10 6 12 15 16 14 21 44 31 18 14 32 23 21 24 14 24 28 26 18 13 8 29 4 11 27 44 50 40 28 42
24 23 25 28 27 24 26 20 27 35 31 42 45 30 10 6 10 10 9 33 27 32 42 10 15 9 14 20 20 11 5 7 20 7 24 16 13 6 7 5 17 20 19 32 58 59 51
43 34 28 24 22 27 27 33 38 30 45 34 47 53 22 8 22 26 27 26 35 44 43 50 57 46 36 12 5 9 6 11 6 5 6 3 10 7 17 14 28 47 14 19 19 47 55
40 38 37 44 43 35 26 28 35 36 32 50 56 41 43 26 33 47 25 33 20 18 11 26 42 36 27 16 7 19 17 7 11 9 5 3 6 13 7 14 44 81 20 45 19 43 45
48 46 46 45 43 43 47 42 36 37 38 37 47 53 52 25 54 61 35 28 35 22 6 7 17 22 44 9 14 16 19 10 17 17 11 6 3 32 37 17 32 13 26 50 17 18 40
51 48 44 43 43 42 42 43 47 55 46 44 62 59 60 41 56 53 58 69 51 49 25 19 10 6 5 13 13 12 12 17 25 34 17 25 20 13 8 18 55 26 24 44 42 66 25
61 57 52 49 50 50 53 59 56 57 57 54 68 65 66 74 66 46 53 86 92 83 60 41 51 29 37 12 10 6 11 9 26 26 19 39 35 30 28 19 15 27 55 64 72 72 45
Wind_Direction_850mb
101 109 108 105 103 98 93 90 81 73 67 67 71 76 78 85 72 45 28 30 46 47 51 54 56 84 81 76 56 40 36 46 58 66 83 90 82 76 83 88 64 61 76 76 90 83 78
80 93 101 106 103 94 88 92 96 90 81 68 58 80 67 76 72 48 39 35 51 60 51 57 64 81 81 74 58 47 43 53 56 72 79 86 90 91 73 54 54 113 100 98 82 85 92
79 79 90 93 95 95 97 96 85 88 80 73 60 115 91 84 80 49 38 28 23 58 47 73 67 56 71 83 66 47 43 51 58 62 75 77 94 103 98 96 101 119 96 112 71 97 156
74 80 88 79 69 63 66 65 63 61 55 48 47 135 161 135 78 34 37 10 332 211 34 42 7 50 76 80 74 71 47 60 54 67 77 83 86 86 91 118 122 61 218 51 6 266 67
61 81 73 53 49 41 34 36 29 29 20 9 4 340 204 192 125 41 0 3 24 168 46 42 40 85 76 83 66 54 94 82 61 81 69 54 46 76 94 113 80 28 51 19 338 17 3
125 54 62 39 76 36 20 12 8 8 6 357 9 349 164 150 117 0 355 348 40 41 249 355 37 86 71 60 60 70 92 125 126 138 353 45 55 60 22 54 109 122 96 37 21 343 30
206 230 268 267 299 327 338 350 5 349 350 349 348 324 189 217 311 341 345 324 321 7 66 74 62 86 101 81 64 69 109 83 86 50 39 30 62 32 331 1 93 109 96 103 319 309 44
231 236 238 259 285 293 296 310 324 328 330 340 342 325 278 277 305 322 350 71 60 119 76 66 68 73 66 74 82 59 80 86 55 50 1 41 51 319 26 46 68 76 99 65 48 28 65
247 247 256 261 267 280 287 291 295 304 310 313 325 321 306 296 305 320 117 88 88 102 83 55 48 36 58 58 52 17 63 90 86 52 29 99 167 24 81 41 59 31 95 149 135 47 80
267 254 251 259 267 276 286 295 294 299 303 310 306 315 312 299 285 202 137 69 30 355 71 277 9 19 353 84 52 42 66 91 54 140 91 78 355 76 70 73 1 66 10 74 104 54 193
272 281 270 258 257 262 270 281 292 294 298 304 305 302 312 296 282 205 189 346 16 9 12 277 338 246 54 86 119 29 38 65 99 97 122 19 28 29 48 19 340 140 85 52 73 87 67
251 261 273 282 273 263 262 265 274 279 281 285 292 297 296 293 253 252 203 213 9 43 262 286 246 175 84 46 54 62 51 72 116 86 45 103 69 79 71 3 353 135 87 55 54 63 21
257 257 259 267 278 285 277 268 264 271 275 275 274 277 278 282 259 232 205 165 35 133 336 266 239 156 92 109 47 40 40 71 170 94 202 340 255 125 145 103 12 65 56 350 356 7 222
262 257 256 257 264 269 277 280 274 264 267 274 273 271 263 257 250 216 180 54 125 231 215 97 79 63 200 146 208 76 62 274 226 94 98 157 302 175 166 159 179 157 145 157 216 235 266
253 257 259 267 264 265 270 277 282 286 265 264 273 270 265 251 231 202 178 83 204 198 155 150 99 169 265 193 137 135 202 221 210 180 162 131 253 3 31 106 135 196 183 138 100 71 36
246 248 250 256 261 267 262 265 269 275 284 272 264 268 259 238 222 196 104 229 229 195 133 154 182 155 197 197 161 182 189 198 190 188 106 193 76 264 150 61 23 186 152 74 1 266 287
244 242 242 244 248 251 257 255 254 257 262 266 258 241 236 212 199 180 177 224 241 215 181 164 203 156 199 181 186 202 214 235 166 142 124 137 104 278 42 203 180 153 207 67 127 149 193
231 235 239 243 246 248 245 246 245 247 249 244 220 238 215 189 172 193 172 194 213 199 208 236 207 192 184 173 185 219 213 221 176 153 166 188 143 174 199 99 54 244 218 166 140 230 228
208 199 208 220 228 238 242 243 242 244 246 241 216 222 200 187 182 241 269 249 224 160 195 189 224 209 176 173 208 202 202 205 179 166 165 181 233 23 332 12 6 217 199 170 94 63 200
286 292 259 233 244 248 224 225 239 254 252 243 202 234 192 199 229 186 172 232 228 211 221 190 197 135 117 196 240 236 226 183 194 196 174 159 160 181 231 216 133 183 198 189 154 145 198
296 294 294 299 288 269 286 292 242 229 244 252 217 230 195 197 237 211 187 163 165 209 222 198 229 209 177 193 196 227 221 162 198 208 183 166 209 189 241 207 194 212 193 185 205 219 202
277 283 287 288 290 292 294 295 285 227 305 233 237 214 194 269 233 198 209 208 216 233 158 237 228 208 212 219 206 231 162 184 195 154 162 213 235 125 272 268 247 250 226 198 221 230 247
261 260 261 262 266 273 284 287 281 284 289 226 240 239 229 211 177 155 210 208 226 189 254 245 224 231 213 235 261 280 232 228 203 162 187 161 148 123 260 55 327 279 212 212 220 207 217
246 261 266 265 262 247 227 230 261 250 252 258 272 268 223 262 217 218 222 218 227 218 239 258 259 205 243 253 221 245 230 50 169 153 163 157 154 167 252 56 251 253 176 200 219 227 215
239 239 246 246 261 278 280 259 254 245 209 235 251 258 250 251 239 251 241 243 252 250 250 247 248 254 264 213 37 303 315 341 285 197 197 223 150 201 222 199 285 273 176 168 180 253 219
241 247 251 251 249 249 255 257 273 280 253 242 243 259 231 240 249 256 253 233 240 240 223 236 240 239 201 193 151 230 225 185 235 308 11 69 46 206 118 196 241 254 177 191 103 269 183
240 239 240 244 247 249 253 260 266 251 255 262 253 251 251 252 253 233 233 244 234 219 224 160 188 187 202 192 223 227 239 172 227 201 165 162 254 220 227 239 265 143 140 140 169 263 183
247 247 251 255 258 259 258 254 258 256 260 256 254 252 256 261 264 246 247 236 243 228 229 177 128 138 153 208 206 202 226 213 230 239 190 182 175 206 204 220 249 144 164 205 236 274 237
244 245 252 257 261 264 267 268 265 261 259 261 269 264 258 249 254 260 261 256 245 239 251 230 230 187 194 203 205 213 216 202 213 235 221 232 217 229 207 230 254 222 237 240 242 258 254